Theta_e
344 344 344 344 343 345 347 347 346 346 348 351 350 350 349 347 347 345 344 341 329 321 325 328 326 327 333 337 336 335 337 337 338 338 336 333 335 336 336 335 334 332
345 345 344 344 345 345 346 345 346 346 346 348 350 350 350 347 346 343 340 336 328 321 322 324 321 323 331 338 337 335 336 336 336 338 338 335 333 335 334 334 334 330
346 346 346 346 346 345 345 345 345 345 344 345 348 350 350 347 342 337 331 326 321 320 322 322 321 323 328 334 337 336 336 336 337 338 338 335 332 333 334 335 335 333
346 347 347 346 346 346 346 346 344 343 343 344 348 350 349 344 336 328 323 319 316 318 320 321 322 324 326 327 330 334 336 336 336 338 339 336 332 332 335 336 335 335
346 346 347 346 347 347 347 345 344 344 343 345 349 349 343 333 327 323 319 317 315 316 318 318 320 323 325 324 323 328 335 338 337 336 336 336 335 335 336 336 335 335
346 346 346 346 347 348 347 345 345 345 343 345 348 346 337 326 321 320 318 317 316 316 318 318 318 319 322 323 321 322 329 335 338 337 334 335 337 337 337 336 336 334
347 346 346 346 346 347 347 346 345 344 344 345 346 344 336 325 319 317 316 316 317 318 319 319 319 318 320 322 322 320 322 327 335 339 337 337 337 337 337 336 335 332
346 347 346 346 346 347 347 347 346 345 343 344 344 341 333 323 318 317 316 315 317 318 318 319 321 320 319 321 321 321 319 322 331 337 337 337 338 338 337 336 335 334
346 347 347 347 347 346 347 347 347 347 344 342 343 340 332 322 318 318 317 315 316 316 316 318 320 320 319 320 320 320 320 324 333 337 337 337 338 338 338 337 336 336
345 346 347 347 348 347 347 348 349 349 346 341 342 341 331 322 319 318 317 316 316 316 317 317 318 318 319 320 320 320 320 324 332 336 336 337 338 338 338 338 336 336
344 345 346 346 348 348 347 347 350 352 348 342 341 341 332 324 321 318 316 316 315 316 317 317 317 317 319 320 320 321 321 323 327 330 333 336 337 337 336 335 333 332
344 344 344 346 347 347 347 347 351 355 352 343 339 341 336 327 322 318 317 316 316 316 317 317 317 317 318 320 320 320 322 324 325 328 333 335 337 337 335 333 332 331
342 343 343 345 345 345 347 347 350 355 355 346 339 341 339 331 324 319 317 317 316 317 317 317 317 318 318 320 320 321 324 324 325 332 336 338 338 338 337 335 335 335
341 344 344 344 345 345 345 346 348 353 354 348 340 340 342 336 327 321 318 318 318 318 317 317 317 317 318 319 320 321 323 323 327 334 338 338 339 339 338 337 337 336
344 345 345 345 347 347 345 345 348 350 351 348 342 340 343 339 331 323 319 319 320 320 317 317 318 318 318 319 320 320 321 322 328 335 338 338 339 339 337 337 336 335
348 348 346 346 347 348 348 346 346 349 350 348 344 341 343 342 334 325 320 319 321 321 318 316 318 318 318 318 319 320 321 322 326 333 336 338 339 339 337 336 336 335
352 350 349 348 349 352 354 352 348 349 350 349 346 342 343 344 337 327 322 320 321 320 318 317 319 320 319 318 319 320 321 323 327 332 336 337 339 339 338 337 336 336
353 352 351 351 350 353 357 357 353 350 351 351 347 343 344 345 340 332 325 321 320 320 318 318 322 323 320 318 319 320 321 323 326 331 335 337 338 338 338 337 337 337
353 352 352 352 351 352 356 360 358 355 354 353 350 345 344 345 344 338 330 322 320 321 319 319 323 325 321 318 318 319 321 322 323 326 330 334 337 337 337 337 337 336
352 352 352 352 352 354 357 359 359 358 357 356 354 349 347 347 346 343 335 326 320 319 319 321 324 324 322 319 319 319 320 322 323 323 326 330 334 335 336 336 337 337
352 351 350 351 354 356 357 358 358 359 358 357 355 352 350 349 347 344 338 328 321 319 319 321 324 324 322 321 320 321 322 322 322 322 323 328 332 334 335 335 335 336
349 348 349 354 356 357 356 356 357 358 356 356 355 353 351 349 347 345 339 328 323 321 319 322 325 324 323 323 322 324 325 324 322 322 323 326 329 332 334 335 336 336
351 353 354 357 357 356 354 355 356 356 355 355 355 353 351 350 349 345 338 329 325 321 319 323 327 326 325 324 323 325 328 327 324 324 324 326 327 329 332 333 335 336
355 357 357 357 356 355 354 355 356 355 355 354 354 353 351 349 348 344 340 335 327 322 322 326 327 326 325 323 327 333 334 332 330 329 330 330 329 330 332 334 335 336
357 357 356 356 355 354 355 355 355 355 355 354 353 353 350 348 347 344 341 338 327 321 324 324 324 327 328 329 336 339 335 331 331 331 333 335 335 335 336 337 337 336
356 356 355 355 355 355 355 354 354 354 354 353 352 351 349 346 344 342 340 337 329 323 323 322 325 331 332 333 337 336 330 325 324 326 333 338 338 337 338 338 336 335
Wind_Speed
26 26 25 25 25 24 22 21 19 18 17 15 14 14 15 14 14 14 14 12 9 7 9 9 9 9 9 8 8 8 8 8 8 7 7 6 5 6 6 6 6 6
28 27 27 26 25 25 23 22 20 19 18 17 16 15 15 15 15 15 14 13 10 8 8 9 8 8 8 9 8 8 8 8 8 8 8 7 6 6 6 6 7 8
30 30 29 27 26 25 24 23 22 21 19 18 17 16 16 16 15 15 14 13 10 8 8 9 8 8 8 10 10 8 8 8 8 9 9 9 8 7 7 7 7 8
32 32 30 28 27 26 25 24 24 23 22 21 18 17 18 17 16 16 15 12 11 9 10 10 9 9 9 10 11 10 9 9 10 10 10 10 9 8 7 8 8 8
34 33 32 30 28 27 26 26 25 24 24 23 21 20 20 19 18 17 16 13 11 10 10 10 10 10 10 10 11 11 10 10 10 11 11 10 9 8 7 8 9 9
34 33 33 32 30 29 29 27 26 26 25 25 24 23 22 21 19 17 17 15 12 11 11 11 11 11 11 11 12 11 11 11 10 11 11 10 9 8 8 8 9 9
36 35 34 33 33 32 31 29 28 28 27 26 26 25 23 22 19 18 17 16 14 13 13 13 13 12 12 12 13 12 13 12 12 12 11 10 9 9 9 9 10 10
37 36 35 35 34 33 33 32 31 31 30 29 28 26 24 24 22 20 20 19 18 17 15 15 15 14 12 13 14 13 13 13 13 14 13 11 11 11 11 10 11 11
38 37 37 37 36 36 35 34 34 33 32 31 30 27 25 25 25 24 23 22 20 19 18 16 15 15 14 15 15 14 13 13 13 13 13 12 12 12 11 11 11 11
39 39 39 39 38 38 36 35 34 33 33 32 30 28 26 26 27 26 24 22 21 20 19 17 16 16 16 16 16 15 14 15 15 15 14 13 13 12 12 12 13 13
40 41 41 41 40 39 37 35 33 32 34 34 32 30 29 29 29 28 25 24 23 22 20 18 17 17 17 17 17 16 16 16 16 16 15 14 14 14 14 14 14 15
40 41 43 42 42 40 37 36 34 32 33 36 34 33 32 32 31 29 28 26 24 22 20 19 18 17 18 18 18 17 17 17 17 16 16 15 15 15 15 15 15 16
41 42 43 42 41 40 37 37 36 32 33 37 36 34 34 34 32 31 29 27 24 22 20 20 19 18 19 19 19 19 19 18 18 17 16 15 16 16 15 16 16 16
40 41 42 40 40 40 38 38 38 35 35 38 37 35 35 35 34 32 30 28 26 23 22 22 21 20 20 20 20 20 20 20 19 17 17 16 16 16 16 16 16 16
40 40 41 40 40 41 39 39 39 38 38 39 38 37 37 36 34 33 31 30 28 25 24 24 24 23 23 23 22 22 21 21 20 19 18 17 17 16 16 16 17 16
39 39 38 37 38 40 40 40 40 40 41 41 40 38 38 36 33 32 32 31 30 28 27 27 26 25 24 24 23 22 22 21 21 20 19 18 17 17 16 16 16 16
39 38 37 35 34 33 33 37 41 42 42 42 41 39 39 38 35 34 34 33 31 30 29 28 27 25 25 24 23 23 22 22 22 21 19 17 17 17 17 16 16 16
37 37 35 34 33 28 24 27 36 41 41 41 41 40 39 39 39 37 36 34 33 33 32 30 28 27 26 25 24 24 23 22 22 22 19 17 17 17 17 16 16 16
35 34 33 33 33 29 22 21 26 31 32 32 37 40 40 39 40 39 38 37 36 35 34 32 29 28 27 25 24 24 23 22 23 24 23 20 18 17 17 17 17 17
29 29 30 31 28 23 19 20 22 24 24 24 27 34 40 41 41 40 40 39 37 36 34 31 29 28 27 24 24 23 21 21 23 24 24 23 21 19 19 18 18 18
25 25 26 25 20 15 15 19 22 22 24 24 23 25 30 34 39 42 42 40 38 36 32 30 28 27 25 23 21 18 16 17 20 22 24 24 23 21 20 20 20 20
25 24 22 18 15 13 15 18 21 22 24 25 25 24 24 25 30 38 42 41 38 35 33 30 27 25 24 22 18 14 12 13 17 20 23 25 24 22 20 20 20 21
21 19 17 15 13 14 15 14 17 19 21 23 26 27 27 27 26 29 38 43 41 36 34 31 27 25 24 21 16 13 11 12 15 18 21 24 24 22 20 19 19 20
18 15 14 14 13 14 13 12 14 17 19 22 25 25 28 30 26 25 34 44 44 37 33 30 26 25 26 22 15 12 11 10 12 15 19 22 24 22 20 18 17 18
17 16 14 14 14 13 13 13 15 16 19 23 25 23 23 25 25 25 30 39 40 37 35 33 28 24 23 20 14 13 12 10 10 15 19 21 23 21 17 16 16 17
15 14 13 13 13 12 12 13 14 15 17 21 24 21 18 20 25 26 26 31 35 35 34 33 28 23 22 21 18 16 16 14 13 17 21 21 20 17 15 15 15 15
Wind_Direction
221 220 220 222 223 224 225 226 229 230 224 216 212 215 217 214 210 205 207 222 237 230 223 225 228 222 212 214 213 202 207 217 217 225 231 226 222 223 233 243 247 251
223 223 223 222 223 223 224 225 226 227 227 223 216 216 219 216 214 211 212 225 239 238 231 233 238 232 212 209 217 210 209 218 218 222 232 234 230 230 238 245 252 261
224 225 225 224 224 225 224 225 226 226 230 231 223 215 215 216 219 223 226 234 242 237 235 241 242 237 221 211 213 212 215 223 222 222 233 238 235 235 239 243 249 259
224 226 227 226 225 226 226 226 228 227 228 231 225 213 213 220 227 233 237 239 241 236 234 241 241 237 233 223 220 218 218 228 227 220 227 237 239 237 238 243 247 250
225 226 228 228 226 226 227 227 228 228 229 228 224 220 224 232 235 239 245 244 240 233 231 238 240 237 236 234 232 225 218 225 231 226 224 229 237 240 239 243 251 254
226 226 228 229 227 226 227 228 227 228 229 227 226 229 234 239 239 240 246 247 240 230 226 233 239 237 236 237 236 231 223 219 223 233 232 224 226 231 233 238 245 253
226 227 228 229 229 228 228 228 227 227 228 227 227 232 237 240 240 240 244 245 238 229 224 227 234 233 230 234 236 235 231 219 211 222 231 226 225 228 230 237 244 251
226 227 228 229 230 230 229 230 231 230 230 227 227 231 236 239 239 237 240 240 233 229 227 225 229 230 229 233 236 236 234 224 212 216 225 225 226 230 232 238 247 254
226 227 229 230 230 230 230 231 232 232 232 229 228 231 235 240 241 237 235 234 229 229 230 225 225 230 231 232 235 237 233 224 217 219 225 227 230 235 238 243 251 255
226 227 229 230 230 230 231 231 232 233 234 231 228 230 234 239 241 238 235 233 229 228 229 227 226 231 233 232 233 237 234 226 221 222 225 228 233 237 240 247 253 256
226 228 230 230 230 231 231 231 229 229 233 232 228 228 233 235 235 235 235 234 230 228 229 230 230 232 233 232 231 232 233 231 228 228 230 232 236 240 243 249 256 261
227 229 231 231 231 233 233 232 227 221 226 233 230 227 231 233 232 232 234 234 231 229 230 233 233 233 232 232 232 230 230 232 232 233 235 237 241 246 250 254 260 264
229 231 232 232 234 235 234 233 228 217 219 231 233 228 229 232 232 231 232 234 232 228 229 234 236 236 233 231 231 229 229 232 233 233 235 239 244 248 252 255 257 259
230 232 234 234 235 236 235 234 231 221 220 231 235 230 228 231 233 232 232 232 231 227 229 234 237 237 234 231 230 228 229 233 235 233 236 240 244 249 252 255 255 255
230 231 234 234 233 235 236 235 232 227 226 232 234 232 230 230 231 233 233 231 230 229 229 231 234 235 232 230 230 228 227 232 235 236 239 243 246 249 252 254 256 257
229 230 233 234 232 234 236 236 233 229 230 233 235 233 231 229 227 229 233 232 229 229 230 229 230 233 232 231 231 230 229 231 235 238 241 244 247 250 251 253 257 259
228 231 235 236 234 233 234 234 233 230 230 233 234 232 231 229 226 227 231 233 231 229 229 228 229 233 236 234 233 232 230 231 235 238 242 246 249 250 251 254 257 259
230 234 237 238 237 236 233 231 232 232 230 232 233 232 229 229 229 229 231 232 233 231 229 227 228 234 237 236 235 235 233 232 237 240 243 248 250 250 253 256 257 259
234 237 238 239 242 242 234 224 227 230 228 230 233 233 230 229 231 232 231 232 233 232 229 226 226 230 235 236 236 237 235 234 237 242 245 247 247 248 252 255 256 259
233 235 237 240 241 236 223 216 222 225 224 226 230 231 231 232 232 232 232 230 230 230 228 226 227 231 234 236 237 239 239 237 239 245 248 249 247 248 250 254 257 259
230 235 235 232 227 218 211 214 220 223 223 224 224 224 227 230 232 234 233 229 227 228 227 226 230 233 234 237 240 243 245 245 244 247 249 250 250 250 254 259 262 265
228 228 223 216 209 211 213 213 215 220 223 223 220 219 221 224 228 231 232 227 224 225 226 226 231 237 239 242 242 241 248 251 246 243 244 248 252 254 256 261 265 269
215 210 207 205 205 212 216 214 215 220 225 225 222 220 220 223 225 226 229 228 225 224 226 224 226 235 241 243 243 242 249 254 247 245 247 251 255 257 259 265 271 273
199 195 199 203 205 210 214 213 212 216 222 228 228 222 220 226 226 220 226 230 228 223 221 219 224 237 244 246 245 240 247 260 262 262 261 258 258 260 264 273 280 279
192 195 199 201 204 208 210 209 208 210 216 226 230 224 217 221 221 218 224 230 227 221 217 220 230 239 241 237 227 222 233 249 260 266 267 262 259 260 266 276 281 279
191 195 197 196 202 206 207 208 207 207 214 223 228 225 214 214 220 223 225 226 225 221 219 221 228 229 225 223 221 227 235 236 243 257 260 255 253 259 266 272 274 278